DELTA 1 DEB

Satellite information

Favourite Embed

Satellite Type and Status

DEBRISIN ORBIT

Key statistics

Satellite DELTA 1 DEB at a glance.

Uptime

18447

Days in orbit

Revolutions

≈ 12.7

Per day

Orbit

SSO

Sun Synchronous Orbit

Inclination

99.8

Latest

Satellite identification and parameters

Extended collection of information and parameters for DELTA 1 DEB.

Object identification

Identified? True

Debris? True

Object name: DELTA 1 DEB

International designator: 1975-052HT

Object number (NORAD): 21599

Object ID (CCSDS): 21599

Country: UNITED STATES OF AMERICA (US)

Current information (Y/N): Y

RCS size: SMALL

Orbital parameters

Period: 113.155 minutes

Inclination: 99.8269 deg

SMA: 7749.521 km

Apoapsis: 1702.073 km

Periapsis: 1040.699 km

RAAN: 264.0963 deg

Eccentricy: 0.0426719

Argument of periapsis: 205.8002 deg

Mean anomaly: 335.5852 deg

Mean motion: 12.72595764 rev/day

Mean motion (dot): 0.00000197 rev/day2

B* drag term: 0.00078609 1/REarth

Two-line elements (TLE)

Creation date: Dec. 10, 2025, 10:46 p.m.

Reference frame: TEME

Reference center: EARTH

Epoch: Dec. 10, 2025, 1:43 p.m. UTC

TLE line 0: 0 DELTA 1 DEB

TLE line 1: 1 21599U 75052HT 25344.57154572 .00000197 00000-0 78609-3 0 9999

TLE line 2: 2 21599 99.8269 264.0963 0426719 205.8002 335.5852 12.72595764595319

Live tracking on map

Real-time ground track for satellite DELTA 1 DEB.

In-orbit conjunctions

A list of the most updated potential collisions computed for object DELTA 1 DEB.

Target Orbit TCA Probability of collision Miss distance Type
RADIO 2 LEO 2024-12-11 06:47:34 0.0002215174 59.0 (m) PAYLOAD
DELTA 1 DEB SSO 2024-11-13 21:09:30 0.0004930579 188.0 (m) DEBRIS

Associated space launch

Experimental meteorological satellite

DELTA 1 DEB was lifted into orbit during the mission ‘Delta 2910 | Nimbus 6’, on board a Delta 2910 space rocket.

The launch took place on June 12, 1975, 8:12 a.m. from Space Launch Complex 2W.

For more information about the launch, click the button.

Launch to space Delta 2910 | Nimbus 6
Delta 2910 | Nimbus 6

Agency: N/A

Status: Launch Successful

Launch date: June 12, 1975, 8:12 a.m. UTC

Rocket: Delta 2910

Launch pad: Space Launch Complex 2W

Location: Vandenberg SFB, CA, USA

...

Latest news about this satellite

There are no fresh news available about this satellite. Check back as we update our databases every day.


Newsletter sign-up

Weekly statistics, charts and insights to help you stay on top of the space industry.